SES-6

Last updated on Fri Jul 11 2025 00:02:44 GMT+0000 (Coordinated Universal Time)

1 39172U 13026A 25191.48231278 -.00000248 00000+0 00000+0 0 9990 2 39172 0.0294 320.9865 0002725 160.7551 300.0381 1.00270197 44294
UTC large
Height (km)
Speed (km/s)
/
Latitude / Longitude
Inclination (degrees)
Orbital Period (minutes)
Azimuth
Elevation
Range (km)
Doppler Factor

Next 0 passes for location: London (51.5072 / 0.1276)

Sorry there are no passes over London.